Time,TemperatureF,DewpointF,PressureIn,WindDirection,WindDirectionDegrees,WindSpeedMPH,WindSpeedGustMPH,Humidity,HourlyPrecipIn,Conditions,Clouds,dailyrainin,SoftwareType,DateUTC
2013-09-05 00:09:00,66.0,60.0,29.92,WNW,295,0.0,0.0,81,0.00,,,0.00,weatherlink.com 1.10,2013-09-05 04:09:00,
2013-09-05 00:24:00,65.7,60.0,29.91,WNW,295,0.0,0.0,82,0.00,,,0.00,weatherlink.com 1.10,2013-09-05 04:24:00,
2013-09-05 00:39:00,65.7,60.0,29.91,WNW,295,0.0,1.0,81,0.00,,,0.00,weatherlink.com 1.10,2013-09-05 04:39:00,
2013-09-05 00:54:00,65.6,60.0,29.91,WNW,295,0.0,0.0,81,0.00,,,0.00,weatherlink.com 1.10,2013-09-05 04:54:00,
2013-09-05 01:09:00,65.7,60.0,29.91,WNW,295,0.0,1.0,81,0.00,,,0.00,weatherlink.com 1.10,2013-09-05 05:09:00,
2013-09-05 01:24:00,65.6,60.0,29.91,WNW,295,0.0,0.0,81,0.00,,,0.00,weatherlink.com 1.10,2013-09-05 05:24:00,
2013-09-05 01:39:00,65.3,60.0,29.90,WNW,295,0.0,0.0,82,0.00,,,0.00,weatherlink.com 1.10,2013-09-05 05:39:00,
2013-09-05 01:54:00,64.9,60.0,29.90,WNW,295,0.0,0.0,83,0.00,,,0.00,weatherlink.com 1.10,2013-09-05 05:54:00,
2013-09-05 02:09:00,64.7,59.0,29.90,WNW,295,0.0,0.0,83,0.00,,,0.00,weatherlink.com 1.10,2013-09-05 06:09:00,
2013-09-05 02:24:00,64.5,60.0,29.90,WNW,293,0.0,2.0,84,0.00,,,0.00,weatherlink.com 1.10,2013-09-05 06:24:00,
2013-09-05 02:39:00,64.2,59.0,29.90,WNW,293,0.0,1.0,84,0.00,,,0.00,weatherlink.com 1.10,2013-09-05 06:39:00,
2013-09-05 02:54:00,63.9,59.0,29.90,WNW,293,0.0,0.0,85,0.00,,,0.00,weatherlink.com 1.10,2013-09-05 06:54:00,
2013-09-05 03:09:00,63.7,59.0,29.89,WNW,293,0.0,0.0,85,0.00,,,0.00,weatherlink.com 1.10,2013-09-05 07:09:00,
2013-09-05 03:24:00,63.5,59.0,29.89,NW,313,0.0,1.0,85,0.00,,,0.00,weatherlink.com 1.10,2013-09-05 07:24:00,
2013-09-05 03:39:00,63.5,59.0,29.89,NW,312,0.0,1.0,85,0.00,,,0.00,weatherlink.com 1.10,2013-09-05 07:39:00,
2013-09-05 03:54:00,63.3,59.0,29.89,WNW,302,0.0,0.0,86,0.00,,,0.00,weatherlink.com 1.10,2013-09-05 07:54:00,
2013-09-05 04:10:00,63.0,59.0,29.89,WNW,296,0.0,2.0,86,0.00,,,0.00,weatherlink.com 1.10,2013-09-05 08:10:00,
2013-09-05 04:25:00,62.9,59.0,29.89,WNW,296,0.0,0.0,86,0.00,,,0.00,weatherlink.com 1.10,2013-09-05 08:25:00,
2013-09-05 04:40:00,62.6,59.0,29.89,WNW,296,0.0,1.0,87,0.00,,,0.00,weatherlink.com 1.10,2013-09-05 08:40:00,
2013-09-05 04:55:00,62.5,59.0,29.89,WNW,296,0.0,0.0,87,0.00,,,0.00,weatherlink.com 1.10,2013-09-05 08:55:00,
2013-09-05 05:10:00,62.4,59.0,29.89,WNW,296,0.0,0.0,87,0.00,,,0.00,weatherlink.com 1.10,2013-09-05 09:10:00,
2013-09-05 05:25:00,62.1,59.0,29.89,WNW,296,0.0,0.0,88,0.00,,,0.00,weatherlink.com 1.10,2013-09-05 09:25:00,
2013-09-05 05:40:00,61.8,58.0,29.90,WNW,296,0.0,3.0,88,0.00,,,0.00,weatherlink.com 1.10,2013-09-05 09:40:00,
2013-09-05 05:55:00,61.5,58.0,29.90,WNW,296,0.0,0.0,88,0.00,,,0.00,weatherlink.com 1.10,2013-09-05 09:55:00,
2013-09-05 06:10:00,61.3,58.0,29.90,WNW,296,0.0,0.0,89,0.00,,,0.00,weatherlink.com 1.10,2013-09-05 10:10:00,
2013-09-05 06:25:00,61.2,58.0,29.90,WNW,296,0.0,1.0,90,0.00,,,0.00,weatherlink.com 1.10,2013-09-05 10:25:00,
2013-09-05 06:40:00,61.1,58.0,29.91,WNW,296,0.0,1.0,90,0.00,,,0.00,weatherlink.com 1.10,2013-09-05 10:40:00,
2013-09-05 06:55:00,61.1,58.0,29.91,WNW,296,0.0,1.0,90,0.00,,,0.00,weatherlink.com 1.10,2013-09-05 10:55:00,
2013-09-05 07:10:00,61.3,58.0,29.91,WNW,296,0.0,0.0,90,0.00,,,0.00,weatherlink.com 1.10,2013-09-05 11:10:00,
2013-09-05 07:25:00,62.0,59.0,29.92,West,271,0.0,1.0,89,0.00,,,0.00,weatherlink.com 1.10,2013-09-05 11:25:00,
2013-09-05 07:40:00,62.8,59.0,29.93,West,277,0.0,1.0,88,0.00,,,0.00,weatherlink.com 1.10,2013-09-05 11:40:00,
2013-09-05 07:55:00,63.8,60.0,29.93,West,277,0.0,1.0,86,0.00,,,0.00,weatherlink.com 1.10,2013-09-05 11:55:00,
2013-09-05 08:10:00,65.3,60.0,29.93,WNW,296,0.0,2.0,83,0.00,,,0.00,weatherlink.com 1.10,2013-09-05 12:10:00,
2013-09-05 08:25:00,66.7,61.0,29.93,WNW,291,0.0,3.0,81,0.00,,,0.00,weatherlink.com 1.10,2013-09-05 12:25:00,
2013-09-05 08:40:00,67.6,61.0,29.93,WNW,294,2.0,3.0,79,0.00,,,0.00,weatherlink.com 1.10,2013-09-05 12:40:00,
2013-09-05 08:55:00,68.2,61.0,29.93,NW,304,0.0,2.0,78,0.00,,,0.00,weatherlink.com 1.10,2013-09-05 12:55:00,
2013-09-05 09:10:00,69.3,62.0,29.93,WNW,296,0.0,2.0,77,0.00,,,0.00,weatherlink.com 1.10,2013-09-05 13:10:00,
2013-09-05 09:25:00,71.6,63.0,29.94,North,9,0.0,2.0,74,0.00,,,0.00,weatherlink.com 1.10,2013-09-05 13:25:00,
2013-09-05 09:40:00,73.4,63.0,29.93,WNW,296,4.0,4.0,71,0.00,,,0.00,weatherlink.com 1.10,2013-09-05 13:40:00,
2013-09-05 09:55:00,74.3,63.0,29.93,West,275,0.0,5.0,68,0.00,,,0.00,weatherlink.com 1.10,2013-09-05 13:55:00,
2013-09-05 10:10:00,75.2,63.0,29.93,NW,317,0.0,5.0,65,0.00,,,0.00,weatherlink.com 1.10,2013-09-05 14:10:00,
2013-09-05 10:25:00,76.1,63.0,29.93,West,275,3.0,5.0,65,0.00,,,0.00,weatherlink.com 1.10,2013-09-05 14:25:00,
2013-09-05 10:40:00,75.9,63.0,29.93,WNW,302,0.0,3.0,65,0.00,,,0.00,weatherlink.com 1.10,2013-09-05 14:40:00,
2013-09-05 10:55:00,75.1,63.0,29.94,West,281,0.0,4.0,66,0.00,,,0.00,weatherlink.com 1.10,2013-09-05 14:55:00,
2013-09-05 11:10:00,75.2,63.0,29.93,WNW,302,1.0,3.0,66,0.00,,,0.00,weatherlink.com 1.10,2013-09-05 15:10:00,
2013-09-05 11:25:00,75.1,63.0,29.94,West,262,0.0,4.0,66,0.00,,,0.00,weatherlink.com 1.10,2013-09-05 15:25:00,
2013-09-05 11:40:00,75.8,64.0,29.93,West,281,0.0,5.0,66,0.00,,,0.00,weatherlink.com 1.10,2013-09-05 15:40:00,
2013-09-05 11:55:00,77.5,63.0,29.93,WSW,250,1.0,6.0,62,0.00,,,0.00,weatherlink.com 1.10,2013-09-05 15:55:00,
2013-09-05 12:10:00,77.2,63.0,29.94,SE,136,0.0,6.0,61,0.00,,,0.00,weatherlink.com 1.10,2013-09-05 16:10:00,
2013-09-05 12:25:00,76.4,63.0,29.94,WNW,284,1.0,4.0,64,0.00,,,0.00,weatherlink.com 1.10,2013-09-05 16:25:00,
2013-09-05 12:40:00,76.5,62.0,29.94,NW,319,0.0,5.0,62,0.00,,,0.00,weatherlink.com 1.10,2013-09-05 16:40:00,
2013-09-05 12:55:00,76.5,62.0,29.94,SW,232,2.0,7.0,61,0.00,,,0.00,weatherlink.com 1.10,2013-09-05 16:55:00,
2013-09-05 13:10:00,76.8,61.0,29.93,NW,326,2.0,5.0,58,0.00,,,0.00,weatherlink.com 1.10,2013-09-05 17:10:00,
2013-09-05 13:26:00,76.6,55.0,29.93,NW,304,0.0,8.0,48,0.00,,,0.00,weatherlink.com 1.10,2013-09-05 17:26:00,
2013-09-05 13:41:00,76.3,56.0,29.93,NNW,332,3.0,7.0,49,0.00,,,0.00,weatherlink.com 1.10,2013-09-05 17:41:00,
2013-09-05 13:56:00,76.4,55.0,29.94,NW,325,2.0,9.0,47,0.00,,,0.00,weatherlink.com 1.10,2013-09-05 17:56:00,
2013-09-05 14:11:00,76.6,54.0,29.94,SW,219,1.0,6.0,45,0.00,,,0.00,weatherlink.com 1.10,2013-09-05 18:11:00,
2013-09-05 14:26:00,76.7,54.0,29.94,NNW,335,2.0,5.0,46,0.00,,,0.00,weatherlink.com 1.10,2013-09-05 18:26:00,
2013-09-05 14:41:00,76.7,52.0,29.94,North,360,2.0,5.0,43,0.00,,,0.00,weatherlink.com 1.10,2013-09-05 18:41:00,
2013-09-05 14:56:00,76.8,52.0,29.94,WNW,288,3.0,8.0,42,0.00,,,0.00,weatherlink.com 1.10,2013-09-05 18:56:00,
2013-09-05 15:11:00,76.6,50.0,29.94,WSW,237,1.0,5.0,40,0.00,,,0.00,weatherlink.com 1.10,2013-09-05 19:11:00,
2013-09-05 15:26:00,76.4,49.0,29.95,WNW,299,0.0,5.0,38,0.00,,,0.00,weatherlink.com 1.10,2013-09-05 19:26:00,
2013-09-05 15:41:00,76.3,49.0,29.95,NNW,327,3.0,9.0,38,0.00,,,0.00,weatherlink.com 1.10,2013-09-05 19:41:00,
2013-09-05 15:56:00,76.3,51.0,29.94,North,360,4.0,8.0,41,0.00,,,0.00,weatherlink.com 1.10,2013-09-05 19:56:00,
2013-09-05 16:11:00,76.1,51.0,29.94,South,181,1.0,5.0,42,0.00,,,0.00,weatherlink.com 1.10,2013-09-05 20:11:00,
2013-09-05 16:26:00,76.0,49.0,29.95,NW,321,2.0,4.0,39,0.00,,,0.00,weatherlink.com 1.10,2013-09-05 20:26:00,
2013-09-05 16:41:00,75.9,48.0,29.95,West,271,1.0,6.0,38,0.00,,,0.00,weatherlink.com 1.10,2013-09-05 20:41:00,
2013-09-05 16:56:00,75.7,49.0,29.95,WSW,257,6.0,6.0,39,0.00,,,0.00,weatherlink.com 1.10,2013-09-05 20:56:00,
2013-09-05 17:11:00,75.5,49.0,29.96,North,350,3.0,8.0,39,0.00,,,0.00,weatherlink.com 1.10,2013-09-05 21:11:00,
2013-09-05 17:26:00,74.8,48.0,29.96,West,277,1.0,6.0,39,0.00,,,0.00,weatherlink.com 1.10,2013-09-05 21:26:00,
2013-09-05 17:41:00,74.4,45.0,29.97,NE,35,1.0,11.0,35,0.00,,,0.00,weatherlink.com 1.10,2013-09-05 21:41:00,
2013-09-05 17:56:00,73.9,46.0,29.98,NNW,333,0.0,6.0,37,0.00,,,0.00,weatherlink.com 1.10,2013-09-05 21:56:00,
2013-09-05 18:11:00,73.4,46.0,29.99,SSW,194,2.0,7.0,38,0.00,,,0.00,weatherlink.com 1.10,2013-09-05 22:11:00,
2013-09-05 18:26:00,72.8,47.0,29.99,WNW,296,1.0,6.0,40,0.00,,,0.00,weatherlink.com 1.10,2013-09-05 22:26:00,
2013-09-05 18:41:00,72.0,46.0,30.00,WNW,294,0.0,4.0,40,0.00,,,0.00,weatherlink.com 1.10,2013-09-05 22:41:00,
2013-09-05 18:56:00,71.1,47.0,30.00,NNW,330,0.0,4.0,43,0.00,,,0.00,weatherlink.com 1.10,2013-09-05 22:56:00,
2013-09-05 19:11:00,70.2,47.0,30.00,NNW,336,0.0,2.0,44,0.00,,,0.00,weatherlink.com 1.10,2013-09-05 23:11:00,
2013-09-05 19:26:00,69.3,48.0,30.01,NNW,335,0.0,4.0,46,0.00,,,0.00,weatherlink.com 1.10,2013-09-05 23:26:00,
2013-09-05 19:41:00,68.3,48.0,30.01,NNW,328,0.0,1.0,48,0.00,,,0.00,weatherlink.com 1.10,2013-09-05 23:41:00,
2013-09-05 19:56:00,67.3,48.0,30.02,NNW,328,0.0,1.0,50,0.00,,,0.00,weatherlink.com 1.10,2013-09-05 23:56:00,
2013-09-05 20:11:00,66.2,49.0,30.02,NNW,328,0.0,0.0,55,0.00,,,0.00,weatherlink.com 1.10,2013-09-06 00:11:00,
2013-09-05 20:26:00,64.8,49.0,30.03,NNW,328,0.0,0.0,56,0.00,,,0.00,weatherlink.com 1.10,2013-09-06 00:26:00,
2013-09-05 20:41:00,63.6,48.0,30.04,NNW,328,0.0,0.0,58,0.00,,,0.00,weatherlink.com 1.10,2013-09-06 00:41:00,
2013-09-05 20:56:00,62.6,49.0,30.04,NNW,328,0.0,0.0,62,0.00,,,0.00,weatherlink.com 1.10,2013-09-06 00:56:00,
2013-09-05 21:11:00,61.7,49.0,30.05,NNW,328,0.0,0.0,63,0.00,,,0.00,weatherlink.com 1.10,2013-09-06 01:11:00,
2013-09-05 21:26:00,60.8,49.0,30.05,NNW,328,0.0,0.0,65,0.00,,,0.00,weatherlink.com 1.10,2013-09-06 01:26:00,
2013-09-05 21:41:00,59.8,49.0,30.05,NNW,328,0.0,0.0,67,0.00,,,0.00,weatherlink.com 1.10,2013-09-06 01:41:00,
2013-09-05 21:56:00,59.3,50.0,30.06,NNW,328,0.0,0.0,70,0.00,,,0.00,weatherlink.com 1.10,2013-09-06 01:56:00,
2013-09-05 22:11:00,58.9,49.0,30.07,NNW,328,0.0,0.0,71,0.00,,,0.00,weatherlink.com 1.10,2013-09-06 02:11:00,
2013-09-05 22:26:00,58.6,50.0,30.07,NNW,328,0.0,0.0,72,0.00,,,0.00,weatherlink.com 1.10,2013-09-06 02:26:00,
2013-09-05 22:41:00,58.0,50.0,30.08,NNW,328,0.0,0.0,74,0.00,,,0.00,weatherlink.com 1.10,2013-09-06 02:41:00,
2013-09-05 22:57:00,57.8,50.0,30.08,NNW,328,0.0,0.0,75,0.00,,,0.00,weatherlink.com 1.10,2013-09-06 02:57:00,
2013-09-05 23:12:00,57.6,50.0,30.09,NNW,328,0.0,0.0,75,0.00,,,0.00,weatherlink.com 1.10,2013-09-06 03:12:00,
2013-09-05 23:27:00,57.5,50.0,30.10,NNW,328,0.0,0.0,76,0.00,,,0.00,weatherlink.com 1.10,2013-09-06 03:27:00,
2013-09-05 23:42:00,57.3,50.0,30.10,NNW,328,0.0,0.0,77,0.00,,,0.00,weatherlink.com 1.10,2013-09-06 03:42:00,
2013-09-05 23:57:00,56.9,50.0,30.10,NNW,328,0.0,0.0,78,0.00,,,0.00,weatherlink.com 1.10,2013-09-06 03:57:00,